User: anonymous   Login
Location: Elk Forest
(39.5314°N, 75.8738°W)
Time: 20:44:58
(UTC-04:00)
Language:

Resurs 01 Rocket - Orbit

View from above orbital plane
View from above orbital plane
View from above satellite
View from above satellite

Ground track
Ground track

The orbit data is extracted from the following two-line orbital elements,

1 23343U 94074B   17295.60306399 +.00000001 +00000-0 +76968-5 0  9991
2 23343 098.1397 333.8637 0007561 034.1757 079.6675 14.76713331235425
Epoch (UTC): 22 October 2017 14:28:24
Eccentricity: 0.0007561
inclination: 98.1397°
perigee height: 634 km
apogee height: 645 km
right ascension of ascending node: 333.8637°
argument of perigee: 34.1757°
revolutions per day: 14.76713331
mean anomaly at epoch: 79.6675°
orbit number at epoch: 23542

The dashed part of the orbit path shows where the satellite is in the earth's shadow,  

DLR